OneWeb SL0499

operational
NORAD ID: 54117 Int'l Des: 2022-138 Owner: ONEWEBN Country: UK Constellation: oneweb
LEOCIRCULARPOLARONEWEB_TYPE

About OneWeb SL0499

Description loading...

Live Position

Loading 3D Globe...

Upcoming Passes

Altitude History

Altitude vs Time

uPlot chart will show altitude changes over time

Two-Line Element Set

1 54117U 22138E 26094.89476361 .00000004 00000-0 -23385-4 0 9999
2 54117 87.9185 319.5868 0001837 90.6210 269.5133 13.19723673167156
Epoch: Apr 4, 2026 • Age: 7 hours

Current Status

Altitude 1204.3 km
Velocity 7.25 km/s
Sub-Earth Point -45.46°S, 56.07°E
Launch Date Oct 22, 2022
Age 3.4 years
Type internet

Technical Details

Classification Payload
Mass 148.00 kg
Dry Mass 140.00 kg
Total Mass 148.00 kg
Length 1.30 m
Diameter 1.00 m
Span 5.00 m
Shape Trapezoid+2 pan
Manufacturer ONEWUS
Bus Type ARROW
Phase Status In Orbit
Owner/State ONEWEBN/UK

Large Constellations

Loading constellations...